Time,TemperatureF,DewpointF,PressureIn,WindDirection,WindDirectionDegrees,WindSpeedMPH,WindSpeedGustMPH,Humidity,HourlyPrecipIn,Conditions,Clouds,dailyrainin,SolarRadiationWatts/m^2,SoftwareType,DateUTC
2013-03-12 00:02:00,48.0,47.0,-100.00,East,87,0.0,0.0,98,0.01,,,0.04,1.000000,,2013-03-12 07:02:00,
2013-03-12 00:32:00,48.0,47.0,-100.00,ESE,121,0.0,4.0,98,0.01,,,0.05,1.000000,,2013-03-12 07:32:00,
2013-03-12 00:42:00,48.0,47.0,-100.00,ESE,121,0.0,4.0,98,0.01,,,0.05,1.000000,,2013-03-12 07:42:00,
2013-03-12 00:52:00,48.0,47.0,-100.00,ESE,121,0.0,4.0,98,0.01,,,0.05,1.000000,,2013-03-12 07:52:00,
2013-03-12 01:02:00,48.0,47.0,-100.00,ESE,121,0.0,4.0,98,0.01,,,0.05,1.000000,,2013-03-12 08:02:00,
2013-03-12 01:33:00,48.0,48.0,-100.00,NE,52,0.0,2.0,99,0.00,,,0.05,1.000000,,2013-03-12 08:33:00,
2013-03-12 01:42:00,48.0,48.0,-100.00,NE,52,0.0,2.0,99,0.00,,,0.05,1.000000,,2013-03-12 08:42:00,
2013-03-12 01:52:00,48.0,48.0,-100.00,NE,52,0.0,2.0,99,0.00,,,0.05,1.000000,,2013-03-12 08:52:00,
2013-03-12 02:02:00,48.0,48.0,-100.00,NE,52,0.0,2.0,99,0.00,,,0.05,1.000000,,2013-03-12 09:02:00,
2013-03-12 02:33:00,48.0,48.0,-100.00,ENE,67,1.0,3.0,99,0.01,,,0.06,1.000000,,2013-03-12 09:33:00,
2013-03-12 02:42:00,48.0,48.0,-100.00,ENE,67,1.0,3.0,99,0.01,,,0.06,1.000000,,2013-03-12 09:42:00,
2013-03-12 02:52:00,48.0,48.0,-100.00,ENE,67,1.0,3.0,99,0.01,,,0.06,1.000000,,2013-03-12 09:52:00,
2013-03-12 03:02:00,48.0,48.0,-100.00,ENE,67,1.0,3.0,99,0.01,,,0.06,1.000000,,2013-03-12 10:02:00,
2013-03-12 03:33:00,48.0,48.0,-100.00,SW,223,0.0,2.0,99,0.02,,,0.08,1.000000,,2013-03-12 10:33:00,
2013-03-12 03:42:00,48.0,48.0,-100.00,SW,223,0.0,2.0,99,0.02,,,0.08,1.000000,,2013-03-12 10:42:00,
2013-03-12 03:52:00,48.0,48.0,-100.00,SW,223,0.0,2.0,99,0.02,,,0.08,1.000000,,2013-03-12 10:52:00,
2013-03-12 04:02:00,48.0,48.0,-100.00,SW,223,0.0,2.0,99,0.02,,,0.08,1.000000,,2013-03-12 11:02:00,
2013-03-12 04:32:00,48.0,48.0,-100.00,ENE,57,2.0,3.0,99,0.02,,,0.10,1.000000,,2013-03-12 11:32:00,
2013-03-12 04:42:00,48.0,48.0,-100.00,ENE,57,2.0,3.0,99,0.02,,,0.10,1.000000,,2013-03-12 11:42:00,
2013-03-12 04:52:00,48.0,48.0,-100.00,ENE,57,2.0,3.0,99,0.02,,,0.10,1.000000,,2013-03-12 11:52:00,
2013-03-12 05:02:00,48.0,48.0,-100.00,ENE,57,2.0,3.0,99,0.02,,,0.10,1.000000,,2013-03-12 12:02:00,
2013-03-12 05:32:00,48.0,48.0,-100.00,ENE,63,2.0,4.0,99,0.01,,,0.11,1.000000,,2013-03-12 12:32:00,
2013-03-12 05:42:00,48.0,48.0,-100.00,ENE,63,2.0,4.0,99,0.01,,,0.11,1.000000,,2013-03-12 12:42:00,
2013-03-12 05:52:00,48.0,48.0,-100.00,ENE,63,2.0,4.0,99,0.01,,,0.11,1.000000,,2013-03-12 12:52:00,
2013-03-12 06:01:00,48.0,48.0,-100.00,ENE,63,2.0,4.0,99,0.01,,,0.11,1.000000,,2013-03-12 13:01:00,
2013-03-12 06:33:00,48.0,48.0,-100.00,NE,50,0.0,4.0,99,0.00,,,0.11,1.000000,,2013-03-12 13:33:00,
2013-03-12 06:43:00,48.0,48.0,-100.00,NE,50,0.0,4.0,99,0.00,,,0.11,1.000000,,2013-03-12 13:43:00,
2013-03-12 06:52:00,48.0,48.0,-100.00,NE,50,0.0,4.0,99,0.00,,,0.11,1.000000,,2013-03-12 13:52:00,
2013-03-12 07:02:00,48.0,48.0,-100.00,NE,50,0.0,4.0,99,0.00,,,0.11,1.000000,,2013-03-12 14:02:00,
2013-03-12 07:33:00,48.0,48.0,-100.00,NE,52,0.0,2.0,99,0.00,,,0.11,1.000000,,2013-03-12 14:33:00,
2013-03-12 07:42:00,48.0,48.0,-100.00,NE,52,0.0,2.0,99,0.00,,,0.11,1.000000,,2013-03-12 14:42:00,
2013-03-12 07:53:00,48.0,48.0,-100.00,NE,52,0.0,2.0,99,0.00,,,0.11,1.000000,,2013-03-12 14:53:00,
2013-03-12 08:02:00,48.0,48.0,-100.00,NE,52,0.0,2.0,99,0.00,,,0.11,1.000000,,2013-03-12 15:02:00,
2013-03-12 08:32:00,48.0,48.0,-100.00,ENE,71,0.0,0.0,99,0.00,,,0.11,4.000000,,2013-03-12 15:32:00,
2013-03-12 08:42:00,48.0,48.0,-100.00,ENE,71,0.0,0.0,99,0.00,,,0.11,4.000000,,2013-03-12 15:42:00,
2013-03-12 08:53:00,48.0,48.0,-100.00,ENE,71,0.0,0.0,99,0.00,,,0.11,4.000000,,2013-03-12 15:53:00,
2013-03-12 09:02:00,48.0,48.0,-100.00,ENE,71,0.0,0.0,99,0.00,,,0.11,4.000000,,2013-03-12 16:02:00,
2013-03-12 09:33:00,48.0,48.0,-100.00,SW,228,0.0,4.0,99,0.00,,,0.11,18.000000,,2013-03-12 16:33:00,
2013-03-12 09:43:00,48.0,48.0,-100.00,SW,228,0.0,4.0,99,0.00,,,0.11,18.000000,,2013-03-12 16:43:00,
2013-03-12 09:53:00,48.0,48.0,-100.00,SW,228,0.0,4.0,99,0.00,,,0.11,18.000000,,2013-03-12 16:53:00,
2013-03-12 10:02:00,48.0,48.0,-100.00,SW,228,0.0,4.0,99,0.00,,,0.11,18.000000,,2013-03-12 17:02:00,
2013-03-12 10:34:00,50.0,49.0,-100.00,West,262,3.0,7.0,98,0.03,,,0.14,64.000000,,2013-03-12 17:34:00,
2013-03-12 10:44:00,50.0,49.0,-100.00,West,262,3.0,7.0,98,0.03,,,0.14,64.000000,,2013-03-12 17:44:00,
2013-03-12 10:53:00,50.0,49.0,-100.00,West,262,3.0,7.0,98,0.03,,,0.14,64.000000,,2013-03-12 17:53:00,
2013-03-12 11:02:00,50.0,49.0,-100.00,West,262,3.0,7.0,98,0.03,,,0.14,64.000000,,2013-03-12 18:02:00,
2013-03-12 11:33:00,51.0,50.0,-100.00,WSW,250,4.0,9.0,96,0.02,,,0.16,78.000000,,2013-03-12 18:33:00,
2013-03-12 11:43:00,51.0,50.0,-100.00,WSW,250,4.0,9.0,96,0.02,,,0.16,78.000000,,2013-03-12 18:43:00,
2013-03-12 11:53:00,51.0,50.0,-100.00,WSW,250,4.0,9.0,96,0.02,,,0.16,78.000000,,2013-03-12 18:53:00,
2013-03-12 12:03:00,51.0,50.0,-100.00,WSW,250,4.0,9.0,96,0.02,,,0.16,78.000000,,2013-03-12 19:03:00,
2013-03-12 12:33:00,53.0,51.0,-100.00,WSW,249,5.0,11.0,92,0.00,,,0.16,204.000000,,2013-03-12 19:33:00,
2013-03-12 12:43:00,53.0,51.0,-100.00,WSW,249,5.0,11.0,92,0.00,,,0.16,204.000000,,2013-03-12 19:43:00,
2013-03-12 12:53:00,53.0,51.0,-100.00,WSW,249,5.0,11.0,92,0.00,,,0.16,204.000000,,2013-03-12 19:53:00,
2013-03-12 13:02:00,53.0,51.0,-100.00,WSW,249,5.0,11.0,92,0.00,,,0.16,204.000000,,2013-03-12 20:02:00,
2013-03-12 13:33:00,55.0,50.0,-100.00,WSW,249,5.0,12.0,84,0.00,,,0.16,293.000000,,2013-03-12 20:33:00,
2013-03-12 13:42:00,55.0,50.0,-100.00,WSW,249,5.0,12.0,84,0.00,,,0.16,293.000000,,2013-03-12 20:42:00,
2013-03-12 13:53:00,55.0,50.0,-100.00,WSW,249,5.0,12.0,84,0.00,,,0.16,293.000000,,2013-03-12 20:53:00,
2013-03-12 14:02:00,55.0,50.0,-100.00,WSW,249,5.0,12.0,84,0.00,,,0.16,293.000000,,2013-03-12 21:02:00,
2013-03-12 14:33:00,54.0,51.0,-100.00,West,268,5.0,11.0,88,0.00,,,0.15,219.000000,,2013-03-12 21:33:00,
2013-03-12 14:43:00,54.0,51.0,-100.00,West,268,5.0,11.0,88,0.00,,,0.15,219.000000,,2013-03-12 21:43:00,
2013-03-12 14:52:00,54.0,51.0,-100.00,West,268,5.0,11.0,88,0.00,,,0.15,219.000000,,2013-03-12 21:52:00,
2013-03-12 15:02:00,54.0,51.0,-100.00,West,268,5.0,11.0,88,0.00,,,0.15,219.000000,,2013-03-12 22:02:00,
2013-03-12 15:33:00,54.0,51.0,-100.00,WSW,238,4.0,14.0,91,0.00,,,0.15,192.000000,,2013-03-12 22:33:00,
2013-03-12 15:43:00,54.0,51.0,-100.00,WSW,238,4.0,14.0,91,0.00,,,0.15,192.000000,,2013-03-12 22:43:00,
2013-03-12 15:53:00,54.0,51.0,-100.00,WSW,238,4.0,14.0,91,0.00,,,0.15,192.000000,,2013-03-12 22:53:00,
2013-03-12 16:02:00,54.0,51.0,-100.00,WSW,238,4.0,14.0,91,0.00,,,0.15,192.000000,,2013-03-12 23:02:00,
2013-03-12 16:34:00,54.0,51.0,-100.00,SW,221,5.0,10.0,91,0.01,,,0.15,125.000000,,2013-03-12 23:34:00,
2013-03-12 16:43:00,54.0,51.0,-100.00,SW,221,5.0,10.0,91,0.01,,,0.15,125.000000,,2013-03-12 23:43:00,
2013-03-12 16:52:00,54.0,51.0,-100.00,SW,221,5.0,10.0,91,0.01,,,0.15,125.000000,,2013-03-12 23:52:00,
2013-03-12 17:02:00,54.0,51.0,-100.00,SW,221,5.0,10.0,91,0.01,,,0.15,125.000000,,2013-03-13 00:02:00,
2013-03-12 17:33:00,57.0,51.0,-100.00,SSW,207,4.0,11.0,79,0.00,,,0.15,152.000000,,2013-03-13 00:33:00,
2013-03-12 17:42:00,57.0,51.0,-100.00,SSW,207,4.0,11.0,79,0.00,,,0.15,152.000000,,2013-03-13 00:42:00,
2013-03-12 17:53:00,57.0,51.0,-100.00,SSW,207,4.0,11.0,79,0.00,,,0.15,152.000000,,2013-03-13 00:53:00,
2013-03-12 18:02:00,57.0,51.0,-100.00,SSW,207,4.0,11.0,79,0.00,,,0.15,152.000000,,2013-03-13 01:02:00,
2013-03-12 18:33:00,54.0,52.0,-100.00,SSE,147,2.0,7.0,94,0.00,,,0.15,103.000000,,2013-03-13 01:33:00,
2013-03-12 18:43:00,54.0,52.0,-100.00,SSE,147,2.0,7.0,94,0.00,,,0.15,103.000000,,2013-03-13 01:43:00,
2013-03-12 18:52:00,54.0,52.0,-100.00,SSE,147,2.0,7.0,94,0.00,,,0.15,103.000000,,2013-03-13 01:52:00,
2013-03-12 19:02:00,54.0,52.0,-100.00,SSE,147,2.0,7.0,94,0.00,,,0.15,103.000000,,2013-03-13 02:02:00,
2013-03-12 19:33:00,51.0,50.0,-100.00,South,179,1.0,3.0,96,0.00,,,0.15,29.000000,,2013-03-13 02:33:00,
2013-03-12 19:43:00,51.0,50.0,-100.00,South,179,1.0,3.0,96,0.00,,,0.15,29.000000,,2013-03-13 02:43:00,
2013-03-12 19:52:00,51.0,50.0,-100.00,South,179,1.0,3.0,96,0.00,,,0.15,29.000000,,2013-03-13 02:52:00,
2013-03-12 20:01:00,51.0,50.0,-100.00,South,179,1.0,3.0,96,0.00,,,0.15,29.000000,,2013-03-13 03:01:00,
2013-03-12 20:32:00,48.0,47.0,-100.00,ESE,104,1.0,2.0,98,0.00,,,0.14,1.000000,,2013-03-13 03:32:00,
2013-03-12 20:42:00,48.0,47.0,-100.00,ESE,104,1.0,2.0,98,0.00,,,0.14,1.000000,,2013-03-13 03:42:00,
2013-03-12 20:52:00,48.0,47.0,-100.00,ESE,104,1.0,2.0,98,0.00,,,0.14,1.000000,,2013-03-13 03:52:00,
2013-03-12 21:02:00,48.0,47.0,-100.00,ESE,104,1.0,2.0,98,0.00,,,0.14,1.000000,,2013-03-13 04:02:00,
2013-03-12 21:32:00,46.0,45.0,-100.00,East,84,0.0,2.0,98,0.00,,,0.14,1.000000,,2013-03-13 04:32:00,
2013-03-12 21:43:00,46.0,45.0,-100.00,East,84,0.0,2.0,98,0.00,,,0.14,1.000000,,2013-03-13 04:43:00,
2013-03-12 21:53:00,46.0,45.0,-100.00,East,84,0.0,2.0,98,0.00,,,0.14,1.000000,,2013-03-13 04:53:00,
2013-03-12 22:02:00,46.0,45.0,-100.00,East,84,0.0,2.0,98,0.00,,,0.14,1.000000,,2013-03-13 05:02:00,
2013-03-12 22:32:00,45.0,45.0,-100.00,East,83,0.0,1.0,99,0.00,,,0.14,1.000000,,2013-03-13 05:32:00,
2013-03-12 22:42:00,45.0,45.0,-100.00,East,83,0.0,1.0,99,0.00,,,0.14,1.000000,,2013-03-13 05:42:00,
2013-03-12 22:52:00,45.0,45.0,-100.00,East,83,0.0,1.0,99,0.00,,,0.14,1.000000,,2013-03-13 05:52:00,
2013-03-12 23:02:00,45.0,45.0,-100.00,East,83,0.0,1.0,99,0.00,,,0.14,1.000000,,2013-03-13 06:02:00,
2013-03-12 23:33:00,45.0,45.0,-100.00,East,81,0.0,0.0,99,0.00,,,0.13,1.000000,,2013-03-13 06:33:00,
2013-03-12 23:42:00,45.0,45.0,-100.00,East,81,0.0,0.0,99,0.00,,,0.13,1.000000,,2013-03-13 06:42:00,
2013-03-12 23:52:00,45.0,45.0,-100.00,East,81,0.0,0.0,99,0.00,,,0.13,1.000000,,2013-03-13 06:52:00,